Back to catalog

STARLINK-31874

AliveCommunicationsVLEO
NORAD 60603·PAYLOAD·🇺🇸 United States

Launched Aug 20, 2024 from Cape Canaveral Space Force Station

Loading…

Next Passes (next 24 hours)

TLE

FreshSource: CelesTrak SupGP

Epoch: Sep 14, 2026, 13:58 UTC

1 60603C 24150W   26257.58243056  .00058685  00000+0  17344-2 0  2571
2 60603  53.1573 145.5370 0001265  86.4678 126.3545 15.34351773    15

Track STARLINK-31874 in real time with AllMySat

Download on the App Store